TimeAKST,TemperatureF,Dew PointF,Humidity,Sea Level PressureIn,VisibilityMPH,Wind Direction,Wind SpeedMPH,Gust SpeedMPH,PrecipitationIn,Events,Conditions,WindDirDegrees,DateUTC
12:53 AM,-20.9,-25.1,81,30.39,7.0,NE,5.8,-,N/A,,Overcast,40,2013-02-17 09:53:00
1:53 AM,-20.0,-25.1,78,30.39,4.0,NE,5.8,-,N/A,,Haze,40,2013-02-17 10:53:00
3:53 AM,-20.9,-25.1,81,30.40,4.0,ENE,3.5,-,N/A,,Overcast,60,2013-02-17 12:53:00
4:53 AM,-20.0,-25.1,78,30.40,3.0,NNE,3.5,-,N/A,,Haze,30,2013-02-17 13:53:00
5:12 AM,-20.2,-25.6,76,30.40,2.5,Calm,Calm,-,N/A,,Haze,0,2013-02-17 14:12:00
5:19 AM,-20.2,-25.6,76,30.40,3.0,NE,3.5,-,N/A,,Haze,40,2013-02-17 14:19:00
6:53 AM,-22.0,-25.1,86,30.43,4.0,Calm,Calm,-,N/A,,Overcast,0,2013-02-17 15:53:00
7:53 AM,-20.9,-26.0,77,30.43,5.0,NNE,3.5,-,N/A,,Haze,20,2013-02-17 16:53:00
8:53 AM,-22.0,-26.0,82,30.44,6.0,NNE,3.5,-,N/A,,Overcast,20,2013-02-17 17:53:00
9:53 AM,-23.1,-27.0,82,30.45,8.0,North,4.6,-,N/A,,Overcast,10,2013-02-17 18:53:00
10:53 AM,-22.0,-26.0,82,30.47,6.0,NNE,3.5,-,N/A,,Mostly Cloudy,20,2013-02-17 19:53:00
11:12 AM,-22.0,-27.4,76,30.46,9.0,North,4.6,-,N/A,,Scattered Clouds,360,2013-02-17 20:12:00
11:53 AM,-24.0,-27.9,82,30.48,7.0,North,3.5,-,N/A,,Clear,360,2013-02-17 20:53:00
12:07 PM,-25.6,-27.4,91,30.48,2.0,SE,3.5,-,N/A,,Clear,130,2013-02-17 21:07:00
12:19 PM,-25.6,-31.0,76,30.48,1.5,Calm,Calm,-,N/A,,Haze,0,2013-02-17 21:19:00
12:23 PM,-25.6,-29.2,83,30.48,4.0,Calm,Calm,-,N/A,,Partly Cloudy,0,2013-02-17 21:23:00
12:53 PM,-31.0,-9999,N/A,30.50,5.0,Calm,Calm,-,N/A,,Haze,0,2013-02-17 21:53:00
1:01 PM,-29.2,-34.6,75,30.49,2.5,Calm,Calm,-,N/A,,Haze,0,2013-02-17 22:01:00
1:09 PM,-31.0,-9999,N/A,30.50,1.8,Calm,Calm,-,N/A,,Scattered Clouds,0,2013-02-17 22:09:00
1:18 PM,-32.8,-9999,N/A,30.50,2.0,Calm,Calm,-,N/A,,Mostly Cloudy,0,2013-02-17 22:18:00
1:26 PM,-32.8,-9999,N/A,30.50,9.0,Calm,Calm,-,N/A,,Mostly Cloudy,0,2013-02-17 22:26:00
1:53 PM,-32.1,-9999,N/A,30.51,1.5,Calm,Calm,-,N/A,,Overcast,0,2013-02-17 22:53:00
2:06 PM,-32.8,-9999,N/A,30.51,2.5,South,3.5,-,N/A,,Overcast,170,2013-02-17 23:06:00
2:14 PM,-32.8,-9999,N/A,30.51,7.0,South,4.6,-,N/A,,Mostly Cloudy,170,2013-02-17 23:14:00
2:25 PM,-32.8,-9999,N/A,30.51,10.0,South,5.8,-,N/A,,Scattered Clouds,170,2013-02-17 23:25:00
2:53 PM,-33.0,-9999,N/A,30.52,10.0,South,6.9,-,N/A,,Clear,180,2013-02-17 23:53:00
3:53 PM,-35.0,-9999,N/A,30.53,10.0,South,8.1,-,N/A,,Clear,180,2013-02-18 00:53:00
4:30 PM,-34.6,-9999,N/A,30.54,10.0,South,8.1,-,N/A,,Mostly Cloudy,190,2013-02-18 01:30:00
4:53 PM,-35.0,-9999,N/A,30.55,10.0,SSW,6.9,-,N/A,,Scattered Clouds,200,2013-02-18 01:53:00
5:53 PM,-36.0,-9999,N/A,30.57,10.0,South,9.2,-,N/A,,Clear,180,2013-02-18 02:53:00
6:53 PM,-38.0,-9999,N/A,30.59,10.0,SSW,9.2,-,N/A,,Clear,200,2013-02-18 03:53:00
7:53 PM,-38.9,-9999,N/A,30.61,10.0,South,9.2,-,N/A,,Clear,190,2013-02-18 04:53:00
8:53 PM,-40.0,-9999,N/A,30.63,10.0,SSW,8.1,-,N/A,,Clear,200,2013-02-18 05:53:00
9:53 PM,-40.0,-9999,N/A,30.64,10.0,SSW,9.2,-,N/A,,Clear,210,2013-02-18 06:53:00
10:53 PM,-41.1,-9999,N/A,30.65,7.0,South,6.9,-,N/A,,Clear,190,2013-02-18 07:53:00
11:53 PM,-42.0,-9999,N/A,30.67,10.0,SSW,9.2,-,N/A,,Clear,200,2013-02-18 08:53:00